Winona, MN

3:59 PM CDT on March 25, 2017 (GMT -0500)
Winona Municipal-Conrad

Weather History for KONA - February, 2014

Change the Weather History Date:

Wednesday, February 5, 2014

  Actual Average Record
Temperature  
Mean Temperature 5 °F -  
Max Temperature 10 °F 28 °F 51 °F (2005)
Min Temperature 0 °F 15 °F -18 °F (2007)
Degree Days  
Heating Degree Days 60    
Moisture  
Dew Point -3 °F    
Average Humidity 68    
Maximum Humidity 78    
Minimum Humidity 62    
Precipitation  
Precipitation 0.00 in - - ()
Sea Level Pressure  
Sea Level Pressure 30.45 in    
Wind  
Wind Speed 10 mph (NW)    
Max Wind Speed 16 mph    
Max Gust Speed 20 mph    
Visibility 10 miles    
Events      
Averages and records for this station are not official NWS values.
T = Trace of Precipitation, MM = Missing Value Source: NWS Daily Summary

Daily Weather History Graph

Daily Weather History Graph

Search for Another Location

Airport or City:

Trip Planner

Search our weather history database for the weather conditions in past years. The results will help you decide how hot, cold, wet, or windy it might be!

Date:

Astronomy

Feb. 05, 2014 Rise Set
Actual Time 7:19 AM CST 5:22 PM CST
Civil Twilight 6:49 AM CST 5:53 PM CST
Nautical Twilight 6:14 AM CST 6:27 PM CST
Astronomical Twilight 5:41 AM CST 7:01 PM CST
Moon 10:19 AM CST (2/5) No Moon Set
Length of Visible Light 11h 03m
Length of Day
10h 03m
Waxing Crescent, 39% of the Moon is Illuminated
Feb 5
Waxing Crescent
Feb 6
First Quarter
Feb 14
Full
Feb 22
Last Quarter
Mar 1
New

Hourly Weather History & Observations

Time (CST) Temp. Windchill Dew Point Humidity Pressure Visibility Wind Dir Wind Speed Gust Speed Precip Events Conditions
12:18 AM 10.4 °F -2.4 °F -0.4 °F 62% 30.36 in 10.0 mi NW 9.2 mph - N/A   Overcast
12:38 AM 10.4 °F -2.4 °F -0.4 °F 62% 30.36 in 10.0 mi NNW 9.2 mph - N/A   Overcast
12:58 AM 10.4 °F -2.4 °F -0.4 °F 62% 30.36 in 10.0 mi NNW 9.2 mph - N/A   Overcast
1:18 AM 10.4 °F -1.5 °F -0.4 °F 62% 30.37 in 10.0 mi NNW 8.1 mph - N/A   Mostly Cloudy
1:36 AM 10.4 °F -2.4 °F -0.4 °F 62% 30.37 in 10.0 mi NNW 9.2 mph - N/A   Mostly Cloudy
1:58 AM 10.4 °F -3.3 °F -0.4 °F 62% 30.37 in 10.0 mi NNW 10.4 mph - N/A   Scattered Clouds
2:18 AM 10.4 °F -3.3 °F 1.4 °F 67% 30.38 in 10.0 mi NNW 10.4 mph - N/A   Clear
2:38 AM 10.4 °F -3.3 °F 1.4 °F 67% 30.38 in 10.0 mi NW 10.4 mph - N/A   Scattered Clouds
2:58 AM 10.4 °F -3.3 °F 1.4 °F 67% 30.38 in 10.0 mi NNW 10.4 mph - N/A   Mostly Cloudy
3:19 AM 10.4 °F -3.3 °F 1.4 °F 67% 30.38 in 10.0 mi NW 10.4 mph - N/A   Overcast
3:38 AM 8.6 °F -6.3 °F 1.4 °F 73% 30.38 in 10.0 mi NW 11.5 mph - N/A   Overcast
3:58 AM 8.6 °F -7.7 °F -0.4 °F 67% 30.38 in 10.0 mi NNW 13.8 mph - N/A   Overcast
4:19 AM 8.6 °F -7.0 °F -0.4 °F 67% 30.39 in 10.0 mi NW 12.7 mph - N/A   Overcast
4:38 AM 8.6 °F -5.5 °F -0.4 °F 67% 30.39 in 10.0 mi NW 10.4 mph - N/A   Overcast
4:58 AM 8.6 °F -7.0 °F -0.4 °F 67% 30.39 in 10.0 mi NW 12.7 mph - N/A   Overcast
5:19 AM 5.0 °F -12.3 °F -0.4 °F 78% 30.39 in 10.0 mi NW 13.8 mph 17.3 mph N/A   Overcast
5:38 AM 5.0 °F -13.6 °F -0.4 °F 78% 30.40 in 10.0 mi NW 16.1 mph 19.6 mph N/A   Overcast
5:59 AM 5.0 °F -13.0 °F -2.2 °F 72% 30.41 in 10.0 mi NW 15.0 mph - N/A   Overcast
6:18 AM 5.0 °F -12.3 °F -4.0 °F 66% 30.41 in 10.0 mi NW 13.8 mph - N/A   Overcast
6:38 AM 3.2 °F -13.9 °F -4.0 °F 72% 30.41 in 10.0 mi NW 12.7 mph - N/A   Mostly Cloudy
6:59 AM 3.2 °F -14.6 °F -4.0 °F 72% 30.42 in 10.0 mi NW 13.8 mph - N/A   Mostly Cloudy
7:18 AM 3.2 °F -13.1 °F -4.0 °F 72% 30.43 in 10.0 mi NW 11.5 mph - N/A   Overcast
7:38 AM 3.2 °F -13.9 °F -4.0 °F 72% 30.44 in 10.0 mi NW 12.7 mph - N/A   Overcast
7:59 AM 3.2 °F -12.2 °F -4.0 °F 72% 30.44 in 10.0 mi NW 10.4 mph - N/A   Overcast
8:18 AM 3.2 °F -13.1 °F -4.0 °F 72% 30.44 in 10.0 mi NW 11.5 mph - N/A   Overcast
8:38 AM 3.2 °F -13.1 °F -4.0 °F 72% 30.44 in 10.0 mi NW 11.5 mph 16.1 mph N/A   Overcast
8:57 AM 3.2 °F -13.1 °F -4.0 °F 72% 30.45 in 10.0 mi NW 11.5 mph 17.3 mph N/A   Overcast
9:18 AM 3.2 °F -14.6 °F -4.0 °F 72% 30.46 in 10.0 mi NW 13.8 mph 18.4 mph N/A   Overcast
9:38 AM 5.0 °F -12.3 °F -4.0 °F 66% 30.46 in 10.0 mi NNW 13.8 mph 18.4 mph N/A   Overcast
9:58 AM 5.0 °F -11.6 °F -4.0 °F 66% 30.47 in 10.0 mi NNW 12.7 mph - N/A   Overcast
10:18 AM 5.0 °F -9.1 °F -2.2 °F 72% 30.47 in 10.0 mi NNW 9.2 mph - N/A   Overcast
10:38 AM 5.0 °F -10.0 °F -2.2 °F 72% 30.48 in 10.0 mi NW 10.4 mph - N/A   Overcast
10:58 AM 5.0 °F -10.8 °F -2.2 °F 72% 30.48 in 10.0 mi NNW 11.5 mph - N/A   Overcast
11:18 AM 6.8 °F -10.0 °F -2.2 °F 67% 30.48 in 10.0 mi NNW 13.8 mph 17.3 mph N/A   Overcast
11:38 AM 8.6 °F -7.0 °F -0.4 °F 67% 30.47 in 10.0 mi NNW 12.7 mph 16.1 mph N/A   Overcast
11:58 AM 8.6 °F -4.7 °F -0.4 °F 67% 30.47 in 7.0 mi North 9.2 mph 16.1 mph N/A   Overcast
12:18 PM 8.6 °F -7.0 °F -0.4 °F 67% 30.46 in 10.0 mi NNW 12.7 mph - N/A   Overcast
12:38 PM 8.6 °F -6.3 °F -0.4 °F 67% 30.46 in 10.0 mi NNW 11.5 mph - N/A   Overcast
12:58 PM 8.6 °F -7.7 °F -0.4 °F 67% 30.46 in 10.0 mi NNW 13.8 mph 17.3 mph N/A   Overcast
1:18 PM 8.6 °F -7.7 °F -0.4 °F 67% 30.46 in 10.0 mi NNW 13.8 mph - N/A   Overcast
1:38 PM 8.6 °F -4.7 °F -0.4 °F 67% 30.46 in 10.0 mi NNW 9.2 mph - N/A   Overcast
1:58 PM 8.6 °F -7.0 °F -2.2 °F 62% 30.46 in 10.0 mi NNW 12.7 mph - N/A   Overcast
2:18 PM 8.6 °F -3.7 °F -2.2 °F 62% 30.46 in 10.0 mi NNW 8.1 mph - N/A   Overcast
2:38 PM 8.6 °F -3.7 °F -2.2 °F 62% 30.47 in 10.0 mi NNW 8.1 mph - N/A   Overcast
2:58 PM 8.6 °F -5.5 °F -2.2 °F 62% 30.47 in 10.0 mi NNW 10.4 mph - N/A   Overcast
3:18 PM 8.6 °F -4.7 °F -2.2 °F 62% 30.47 in 10.0 mi NNW 9.2 mph - N/A   Overcast
3:38 PM 8.6 °F -3.7 °F -2.2 °F 62% 30.48 in 10.0 mi NNW 8.1 mph - N/A   Overcast
3:58 PM 8.6 °F -4.7 °F -2.2 °F 62% 30.48 in 10.0 mi North 9.2 mph - N/A   Mostly Cloudy
4:18 PM 8.6 °F -4.7 °F -2.2 °F 62% 30.48 in 10.0 mi NNW 9.2 mph - N/A   Scattered Clouds
4:38 PM 8.6 °F -4.7 °F -2.2 °F 62% 30.48 in 10.0 mi NNW 9.2 mph - N/A   Mostly Cloudy
4:58 PM 8.6 °F -4.7 °F -2.2 °F 62% 30.49 in 10.0 mi NW 9.2 mph - N/A   Overcast
5:18 PM 8.6 °F -2.6 °F -0.4 °F 67% 30.50 in 10.0 mi NW 6.9 mph - N/A   Overcast
5:38 PM 8.6 °F -2.6 °F -2.2 °F 62% 30.50 in 10.0 mi WNW 6.9 mph - N/A   Overcast
5:58 PM 8.6 °F -2.6 °F -2.2 °F 62% 30.50 in 10.0 mi WNW 6.9 mph - N/A   Overcast
6:18 PM 8.6 °F -1.3 °F -2.2 °F 62% 30.50 in 10.0 mi NW 5.8 mph - N/A   Overcast
6:38 PM 8.6 °F -3.7 °F -2.2 °F 62% 30.50 in 10.0 mi WNW 8.1 mph - N/A   Overcast
6:58 PM 5.0 °F -5.6 °F -4.0 °F 66% 30.51 in 10.0 mi WNW 5.8 mph - N/A   Mostly Cloudy
7:18 PM 3.2 °F -7.8 °F -4.0 °F 72% 30.51 in 10.0 mi WNW 5.8 mph - N/A   Scattered Clouds
7:38 PM 3.2 °F -9.1 °F -5.8 °F 66% 30.51 in 10.0 mi WNW 6.9 mph - N/A   Scattered Clouds
7:58 PM 3.2 °F -10.3 °F -5.8 °F 66% 30.51 in 10.0 mi WNW 8.1 mph - N/A   Clear
8:19 PM 3.2 °F -10.3 °F -5.8 °F 66% 30.51 in 10.0 mi NW 8.1 mph - N/A   Clear
8:38 PM 1.4 °F -6.2 °F -5.8 °F 72% 30.51 in 10.0 mi NNW 3.5 mph - N/A   Clear
8:58 PM 1.4 °F -9.9 °F -5.8 °F 72% 30.51 in 10.0 mi NNW 5.8 mph - N/A   Clear
9:19 PM 1.4 °F -12.5 °F -5.8 °F 72% 30.51 in 10.0 mi WNW 8.1 mph - N/A   Clear
9:38 PM 1.4 °F -12.5 °F -5.8 °F 72% 30.51 in 10.0 mi WNW 8.1 mph - N/A   Clear
9:58 PM 1.4 °F -11.3 °F -5.8 °F 72% 30.50 in 10.0 mi WNW 6.9 mph - N/A   Clear
10:19 PM 1.4 °F -9.9 °F -5.8 °F 72% 30.50 in 10.0 mi WNW 5.8 mph - N/A   Clear
10:38 PM -0.4 °F -13.4 °F -5.8 °F 78% 30.49 in 10.0 mi NW 6.9 mph - N/A   Clear
10:58 PM -0.4 °F -13.4 °F -5.8 °F 78% 30.49 in 10.0 mi WNW 6.9 mph - N/A   Clear
11:18 PM -0.4 °F -12.0 °F -5.8 °F 78% 30.49 in 10.0 mi WNW 5.8 mph - N/A   Clear
11:38 PM -0.4 °F -8.3 °F -5.8 °F 78% 30.48 in 10.0 mi WNW 3.5 mph - N/A   Clear
11:58 PM -0.4 °F -10.4 °F -5.8 °F 78% 30.48 in 10.0 mi West 4.6 mph - N/A   Clear